Location: Unspecified
(0.0000°N, 0.0000°E)
Time: 19:40:59
(UTC+01:00)

NOAA 12 - Visible Passes

Search period start: 23 November 2014 00:00
Search period end: 03 December 2014 00:00
Orbit: 795 x 817 km, 98.7° (Epoch: 22 November)

Date Brightness Start Highest point End Pass type
(mag) Time Alt. Az. Time Alt. Az. Time Alt. Az.
23 Nov 4.1 20:00:40 10° SSE 20:05:55 61° ENE 20:11:07 10° N visible
24 Nov 4.8 19:36:31 10° SE 19:41:08 31° ENE 19:45:43 10° NNE visible
24 Nov 6.7 21:17:18 10° SW 21:20:38 17° WSW 21:23:58 10° WNW visible
25 Nov 5.6 19:13:20 10° ESE 19:16:22 16° ENE 19:19:23 10° NE visible
25 Nov 5.7 20:51:09 10° SSW 20:55:53 33° WSW 21:00:36 10° NW visible
26 Nov 4.4 20:25:50 10° S 20:31:07 67° WSW 20:36:21 10° NNW visible
27 Nov 4.0 20:01:06 10° SSE 20:06:20 62° ENE 20:11:32 10° N visible
28 Nov 4.8 19:36:56 10° SE 19:41:34 31° ENE 19:46:09 10° NNE visible
28 Nov 6.7 21:17:46 10° SW 21:21:03 17° WSW 21:24:20 10° WNW visible
29 Nov 5.5 19:13:43 10° ESE 19:16:47 16° ENE 19:19:50 10° NE visible
29 Nov 5.7 20:51:36 10° SSW 20:56:18 33° WSW 21:00:59 10° NW visible
30 Nov 4.4 20:26:16 10° S 20:31:32 66° WSW 20:36:45 10° NNW visible
01 Dec 4.0 20:01:31 10° SSE 20:06:45 63° ENE 20:11:56 10° N visible
02 Dec 4.8 19:37:20 10° SE 19:41:58 31° ENE 19:46:34 10° NNE visible
02 Dec 6.7 21:18:14 10° SW 21:21:28 17° WSW 21:24:42 10° WNW visible
